Location: ??????
(55.7522°N, 37.6156°E)
Time: 18:08:52
(UTC+00:00)

SL-4 R/B - Pass Details

Date: 14 June 2025
Orbit: 393 x 546 km, 51.6° (Epoch: 12 July)

Event Time Altitude Azimuth Distance (km) Brightness Sun altitude
Exits shadow 20:47:07 - 224° (SW) 2,614 5.1 -10.4°
Reaches altitude 10° 20:49:23 10° 213° (SSW) 1,797 4.2 -10.5°
Maximum altitude 20:52:51 27° 155° (SSE) 1,042 2.9 -10.5°
Drops below altitude 10° 20:56:14 10° 97° (E) 1,749 4.4 -10.6°
Sets 20:58:37 0° 85° (E) 2,612 5.5 -10.7°
